[[{"header":{"parameterUnit":"m.s-1","parameterCategory":1,"la1":30.2991,"la2":30.254,"lo1":-89.0895,"lo2":-89.0444,"dy":0.0017,"dx":0.0017,"nx":28,"ny":28,"refTime":"2023-10-28T09:00:00:Z","depth":0,"parameterNumber":2,"parameterNumberName":"U-component_of_WINDS"},"data":[0,0,0,0,0,0,0,0,0,0,0,0,0,0,0,0,0,0,0,0,0,0,0,0,0,0,0,0,0,0,0,0,0,0,0,0,0,0,0,0,0,0,0,0,0,0,0,0,0,0,0,0,0,0,0,0,0,0,-4.0139,-4.014,0,-4.0159,-4.0159,-4.0159,-4.0082,-4.0079,-4.0077,-4.0075,-4.0095,-4.0098,-4.01,0,0,0,0,0,0,0,0,0,0,0,0,0,-4.0038,-4.0041,-4.0139,-4.014,-4.014,-4.0159,-4.0159,-4.0159,-4.0082,-4.0079,-4.0076,-4.0074,-4.0094,-4.0098,-4.0101,0,0,0,0,0,0,0,0,0,0,0,0,0,-4.0073,-4.0041,-4.0139,-4.0104,-4.0101,-4.0159,-4.0159,-4.0159,-4.0083,-4.0079,-4.0076,-4.0073,-4.0093,-4.0097,-4.0101,-4.0195,0,0,-4.0113,-4.0115,0,0,0,0,0,0,0,0,-4.0071,-4.0076,-4.0109,-4.0106,-4.0103,-4.0114,-4.0131,-4.0171,-4.0083,-4.0089,-4.0075,-4.0071,-4.0104,-4.0107,-4.0118,-4.0196,-4.0196,-4.0114,-4.0116,-4.0118,-4.0119,0,0,0,0,0,0,0,-4.0068,-4.0075,-4.0147,-4.0109,-4.0106,-4.0088,-4.0089,-4.0138,-4.0116,-4.0089,-4.0083,-4.0086,-4.0102,-4.0115,-4.0118,-4.0197,-4.0114,-4.0117,-4.012,-4.0121,-4.0354,-4.0358,0,0,0,0,0,0,-4.0071,-4.0074,-4.0146,-4.0148,-4.0078,-4.0092,-4.0093,-4.0114,-4.0115,-4.0112,-4.0089,-4.0083,-4.011,-4.0114,-4.0119,-4.0229,-4.0118,-4.0122,-4.0124,-4.035,-4.0355,-4.0359,0,0,0,0,0,0,-4.0069,-4.0078,-4.0146,-4.0109,-4.0116,-4.0098,-4.0122,-4.0116,-4.0129,-4.0116,-4.0112,-4.0106,-4.0107,-4.0113,-4.0177,-4.0229,-4.0123,-4.0127,-4.0346,-4.0352,-4.0357,-4.0451,0,0,0,0,0,0,-4.0066,-4.0078,-4.0112,-4.011,-4.0119,-4.0203,-4.0125,-4.0119,-4.0136,-4.0127,-4.013,-4.0127,-4.0105,-4.0171,-4.0181,-4.0232,-4.013,-4.0341,-4.0349,-4.0355,-4.0443,-4.0459,-4.0472,0,0,0,0,0,-4.0063,-4.0137,-4.0114,-4.0123,-4.0161,-4.0206,-4.021,-4.0183,-4.014,-4.0175,-4.0168,-4.0127,-4.0222,-4.0178,-4.0189,-4.0242,-4.0338,-4.0347,-4.0355,-4.0436,-4.0456,-4.0472,0,0,0,0,0,0,-4.0144,-4.0136,-4.011,-4.0186,-4.0198,-4.0193,-4.0235,-4.0204,-4.0227,-4.0218,-4.0183,-4.0185,-4.0255,-4.0255,-4.0207,-4.0334,-4.0273,-4.0284,-4.0331,-4.0349,-4.0364,-4.0362,-4.0134,0,0,0,0,0,-4.0171,-4.0208,-4.0199,-4.0267,-4.0274,-4.0254,-4.0273,-4.0251,-4.0261,-4.0265,-4.0261,-4.0273,-4.0306,-4.0328,-4.0357,-4.0443,-4.0443,-4.0485,-4.05,-4.0512,-4.0522,-4.0569,-4.0588,-4.0387,-4.0387,-4.0387,0,0,-4.0227,-4.0227,-4.0252,-4.0283,-4.0289,-4.0329,-4.0258,-4.0303,-4.0332,-4.0272,-4.0331,-4.033,-4.0341,-4.0417,-4.045,-4.0419,-4.0578,-4.0523,-4.0533,-4.0536,-4.058,-4.0599,-4.0616,-4.0393,-4.0392,-4.0391,0,0,-4.0349,-4.0352,-4.041,-4.0418,-4.0428,-4.0415,-4.043,-4.0431,-4.0427,-4.0487,-4.0444,-4.0479,-4.0535,-4.0545,-4.0558,-4.0688,-4.0652,-4.0698,-4.0775,-4.0822,-4.0838,-4.0851,-4.0898,-4.0916,-4.0708,-4.0708,-4.0708,0,-4.0416,-4.0473,-4.0443,-4.0491,-4.0507,-4.0456,-4.0515,-4.0524,-4.0544,-4.0556,-4.0522,-4.0593,-4.0597,-4.0675,-4.0707,-4.0719,-4.0735,-4.0697,-4.0838,-4.0851,-4.0864,-4.0908,-4.0926,-4.0714,-4.0713,-4.0713,-4.0712,0,-4.0557,-4.0597,-4.0643,-4.0664,-4.0685,-4.0738,-4.0718,-4.0743,-4.0721,-4.0712,-4.0775,-4.0778,-4.0808,-4.0825,-4.0803,-4.0902,-4.0882,-4.0844,-4.0781,-4.0889,-4.093,-4.0947,-4.0722,-4.072,-4.0718,-4.0717,0,0,-4.0727,-4.0733,-4.075,-4.076,-4.077,-4.0801,-4.0853,-4.0883,-4.0906,-4.0922,-4.0965,-4.1016,-4.0981,-4.0996,-4.0975,-4.1016,-4.112,-4.0972,-4.0972,-4.1,-4.123,-4.1259,-4.1279,-4.1097,-4.1101,-4.1103,-4.1229,0,-4.0846,-4.0935,-4.0911,-4.1,-4.1038,-4.0992,-4.1037,-4.1049,-4.1044,-4.1076,-4.107,-4.1106,-4.1057,-4.1066,-4.1104,-4.1099,-4.1166,-4.109,-4.1138,-4.114,-4.1135,-4.13,-4.133,-4.1448,-4.1245,-4.1248,-4.125,0,-4.0996,-4.1019,-4.1112,-4.1118,-4.1133,-4.1174,-4.1201,-4.1232,-4.1246,-4.1239,-4.1257,-4.1229,-4.1282,-4.1221,-4.1294,-4.1243,-4.1262,-4.1263,-4.1267,-4.1269,-4.12,-4.1307,-4.1485,-4.1503,-4.1274,-4.1272,-4.1271,0,-4.1111,-4.1166,-4.1229,-4.1239,-4.1247,-4.1278,-4.1283,-4.1292,-4.1313,-4.1337,-4.1349,-4.1379,-4.1396,-4.142,-4.1402,-4.1358,-4.1479,-4.1415,-4.1475,-4.1475,-4.15,-4.1499,-4.1684,-4.1514,-4.1514,-4.1514,-4.1513,0,-4.1247,-4.1305,-4.1281,-4.132,-4.1385,-4.1359,-4.1424,-4.1424,-4.1434,-4.1473,-4.1435,-4.1472,-4.1446,-4.1482,-4.1468,-4.1531,-4.1539,-4.1536,-4.1531,-4.1538,-4.1539,-4.1549,-4.154,-4.1518,-4.1517,-4.1517,-4.1516,0,-4.1385,-4.1371,-4.1437,-4.144,-4.1443,-4.1491,-4.1494,-4.1531,-4.1524,-4.1573,-4.1584,-4.1573,-4.1613,-4.1597,-4.164,-4.1631,-4.1712,-4.1697,-4.1708,-4.1703,-4.1764,-4.1759,-4.1962,-4.1987,-4.1802,-4.1803,-4.1805,0,-4.1471,-4.1516,-4.1525,-4.1548,-4.1556,-4.1594,-4.1615,-4.1592,-4.1616,-4.1636,-4.1671,-4.1708,-4.1736,-4.1803,-4.18,-4.1833,-4.1818,-4.1887,-4.1822,-4.1829,-4.1819,-4.1816,-4.1821,-4.1899,-4.1902,-4.1903,-4.1905,0,-4.1627,-4.1619,-4.165,-4.168,-4.1707,-4.1729,-4.1749,-4.177,-4.1749,-4.1778,-4.1819,-4.1841,-4.1886,-4.1924,-4.1954,-4.196,-4.193,-4.1926,-4.1941,-4.1949,-4.1953,-4.1952,-4.1742,-4.1921,-4.1919,-4.1918,-4.1917,-4.1916,-4.1742,-4.1779,-4.1792,-4.1829,-4.1842,-4.1862,-4.1897,-4.1896,-4.1929,-4.1964,-4.1949,-4.1997,-4.2012,-4.205,-4.206,-4.2098,-4.2071,-4.2094,-4.2099,-4.2105,-4.2113,-4.1948,-4.2104,-4.2103,-4.2103,-4.2103,-4.2102,0,-4.1895,-4.1902,-4.1936,-4.1965,-4.1995,-4.1965,-4.1986,-4.2013,-4.2056,-4.2072,-4.2102,-4.2151,-4.2188,-4.2189,-4.2224,-4.2254,-4.2242,-4.2264,-4.2261,-4.2264,-4.2135,-4.2118,-4.2274,-4.2274,-4.2274,-4.2274,-4.2274,-4.2274,-4.1978,-4.2041,-4.2035,-4.2105,-4.2111,-4.2158,-4.2173,-4.2192,-4.2205,-4.2261,-4.2292,-4.2293,-4.2304,-4.234,-4.2374,-4.2373,-4.2387,-4.2416,-4.241,-4.2289,-4.2272,-4.2256,-4.224,-4.2419,-4.2419,-4.2535,-4.2536,-4.2537]},{"header":{"parameterUnit":"m.s-1","parameterCategory":1,"la1":30.2991,"la2":30.254,"lo1":-89.0895,"lo2":-89.0444,"dy":0.0017,"dx":0.0017,"nx":28,"ny":28,"refTime":"2023-10-28T09:00:00:Z","depth":0,"parameterNumber":3,"parameterNumberName":"V-component_of_WINDS"},"data":[0,0,0,0,0,0,0,0,0,0,0,0,0,0,0,0,0,0,0,0,0,0,0,0,0,0,0,0,0,0,0,0,0,0,0,0,0,0,0,0,0,0,0,0,0,0,0,0,0,0,0,0,0,0,0,0,0,0,2.358,2.3581,0,2.3618,2.3618,2.3619,2.3694,2.3696,2.3698,2.3699,2.373,2.373,2.3729,0,0,0,0,0,0,0,0,0,0,0,0,0,2.357,2.357,2.358,2.3581,2.3581,2.3618,2.3618,2.3619,2.3694,2.3696,2.3698,2.37,2.3731,2.373,2.3729,0,0,0,0,0,0,0,0,0,0,0,0,0,2.3587,2.357,2.358,2.3624,2.3628,2.3618,2.3618,2.3619,2.3694,2.3696,2.3698,2.3701,2.3731,2.373,2.3729,2.3678,0,0,2.3726,2.3726,0,0,0,0,0,0,0,0,2.3586,2.3587,2.3617,2.3621,2.3625,2.3654,2.3626,2.3638,2.3693,2.3668,2.3699,2.3702,2.3703,2.3704,2.3706,2.3679,2.368,2.3726,2.3726,2.3725,2.3725,0,0,0,0,0,0,0,2.3585,2.3586,2.3595,2.3617,2.3622,2.364,2.3645,2.3629,2.3672,2.3671,2.3676,2.368,2.3705,2.3707,2.3707,2.3681,2.3726,2.3725,2.3725,2.3725,2.3615,2.3613,0,0,0,0,0,0,2.3578,2.3585,2.3594,2.3596,2.3611,2.3638,2.3644,2.3642,2.3672,2.3679,2.3678,2.3684,2.3707,2.3708,2.3709,2.3651,2.3725,2.3724,2.3724,2.3618,2.3615,2.3612,0,0,0,0,0,0,2.3578,2.3578,2.3592,2.3592,2.3595,2.3636,2.3634,2.3642,2.3643,2.3678,2.3686,2.3672,2.3709,2.371,2.3686,2.3654,2.3724,2.3723,2.3621,2.3617,2.3614,2.3536,0,0,0,0,0,0,2.3577,2.3578,2.3559,2.3591,2.3595,2.357,2.3632,2.3641,2.3642,2.365,2.3674,2.368,2.3711,2.3687,2.3685,2.3654,2.3723,2.3624,2.3619,2.3615,2.3541,2.353,2.352,0,0,0,0,0,2.3576,2.3534,2.3558,2.3559,2.3573,2.3568,2.357,2.3608,2.3639,2.3621,2.3644,2.3679,2.3658,2.3683,2.3682,2.365,2.3626,2.362,2.3615,2.3546,2.3532,2.3521,0,0,0,0,0,0,2.3494,2.3539,2.3566,2.3533,2.3546,2.3581,2.3558,2.3591,2.3594,2.3601,2.3646,2.365,2.362,2.3633,2.3661,2.3603,2.3648,2.3642,2.3595,2.3583,2.3572,2.3569,2.3722,0,0,0,0,0,2.3473,2.3466,2.3505,2.3472,2.3478,2.3517,2.3516,2.3544,2.3559,2.3564,2.3585,2.3596,2.3592,2.3588,2.3586,2.3544,2.355,2.3522,2.3511,2.3502,2.3496,2.3476,2.3464,2.3595,2.3595,2.3595,0,0,2.3427,2.3451,2.3443,2.3456,2.347,2.3461,2.3521,2.3508,2.3502,2.3561,2.3541,2.3557,2.3572,2.3539,2.3526,2.3549,2.3462,2.3495,2.3488,2.3487,2.3469,2.3457,2.3445,2.3591,2.3592,2.3593,0,0,2.334,2.3357,2.3333,2.3346,2.3368,2.3394,2.3388,2.3418,2.3432,2.3413,2.3458,2.345,2.3442,2.3452,2.3455,2.3375,2.3408,2.3373,2.3317,2.3297,2.3286,2.3278,2.3249,2.3238,2.3367,2.3367,2.3367,0,2.328,2.327,2.3315,2.3301,2.3305,2.3362,2.3337,2.3347,2.3365,2.3367,2.3393,2.3386,2.34,2.3371,2.3352,2.3353,2.3347,2.337,2.3285,2.3276,2.3268,2.3242,2.3231,2.3363,2.3363,2.3363,2.3364,0,2.3196,2.3188,2.3166,2.3186,2.3187,2.3167,2.3208,2.3204,2.3233,2.3257,2.3237,2.3257,2.3261,2.3256,2.3282,2.323,2.3244,2.3277,2.3323,2.3251,2.3226,2.3216,2.3356,2.3358,2.3359,2.336,0,0,2.3055,2.3103,2.3094,2.3104,2.3133,2.3127,2.311,2.3117,2.3113,2.3124,2.311,2.3104,2.3135,2.3139,2.3168,2.315,2.3086,2.3186,2.3187,2.3166,2.303,2.3005,2.2993,2.3109,2.3107,2.3106,2.3029,0,2.2974,2.295,2.2991,2.2956,2.295,2.3005,2.2991,2.3006,2.3028,2.3025,2.3049,2.3044,2.3085,2.3089,2.3074,2.3097,2.3059,2.3103,2.3095,2.3094,2.3089,2.298,2.2953,2.2879,2.302,2.3018,2.3017,0,2.2875,2.2886,2.2851,2.2884,2.2883,2.2869,2.288,2.2877,2.2895,2.2913,2.2919,2.2954,2.2939,2.2984,2.2964,2.2993,2.2992,2.3003,2.3001,2.3001,2.305,2.2976,2.2857,2.2845,2.3002,2.3004,2.3005,0,2.2777,2.2781,2.2762,2.2769,2.2807,2.2796,2.2811,2.2833,2.2835,2.2843,2.2845,2.285,2.2853,2.2856,2.2891,2.2921,2.2866,2.2914,2.2879,2.2878,2.2864,2.2864,2.2742,2.2864,2.2864,2.2864,2.2865,0,2.2681,2.2658,2.2719,2.2706,2.2682,2.2729,2.2703,2.2724,2.2743,2.2734,2.2782,2.2773,2.2821,2.2817,2.2844,2.2823,2.2824,2.2837,2.2844,2.2832,2.283,2.2831,2.2837,2.2862,2.2862,2.2863,2.2863,0,2.2566,2.2606,2.2588,2.2627,2.2637,2.2617,2.265,2.2639,2.2666,2.2655,2.2655,2.2696,2.2694,2.273,2.2734,2.2753,2.2719,2.2735,2.2713,2.2718,2.2681,2.2683,2.2554,2.254,2.2672,2.267,2.2669,0,2.2502,2.2486,2.2525,2.2524,2.2538,2.2536,2.2539,2.2585,2.2586,2.2608,2.2595,2.2598,2.2602,2.2596,2.2624,2.2628,2.2645,2.26,2.2645,2.2634,2.2644,2.2644,2.2643,2.2589,2.2587,2.2586,2.2585,0,2.2385,2.2406,2.241,2.2422,2.2425,2.2436,2.2449,2.2445,2.2496,2.2494,2.2495,2.2498,2.2505,2.2506,2.2516,2.253,2.2565,2.2571,2.2563,2.255,2.2537,2.2544,2.2686,2.2573,2.2574,2.2575,2.2576,2.2576,2.2293,2.2282,2.2309,2.2312,2.2328,2.234,2.2333,2.236,2.2361,2.2372,2.2399,2.2394,2.2415,2.2432,2.2443,2.2439,2.2462,2.245,2.2447,2.2443,2.2436,2.2539,2.2441,2.2442,2.2442,2.2442,2.2443,0,2.2179,2.2199,2.2202,2.2221,2.2223,2.226,2.2278,2.2277,2.2273,2.229,2.2295,2.2295,2.2298,2.2328,2.2334,2.2325,2.2341,2.2325,2.2325,2.2328,2.2416,2.2422,2.2311,2.2311,2.2311,2.2311,2.2312,2.2312,2.2119,2.2103,2.2127,2.2119,2.2139,2.2138,2.2144,2.2156,2.217,2.2169,2.2173,2.2194,2.2216,2.2224,2.2228,2.2237,2.2236,2.2214,2.2228,2.2309,2.2322,2.2334,2.234,2.2213,2.2213,2.214,2.2139,2.2139]}]]